contact:dominique.lefevre@mio.osupytheas.fr, maurice.libes@osupytheas.fr, didier.mallarino@osupytheas.fr
Project:EMSO http://www.emso-fr.org/EMSO-France
Depth: 2436.0 m
Title:EMSO Ligure Ouest : Data MII capteur CSTAR
DateTime,Latitude,Longitude,Instrument_Serial,Reference_Counts,Signal_Counts,Corrected_Signal_raw_counts,Calculated_Beam_c_inverse_meters,Internal_thermistor_counts
DateTime,Latitude,Longitude,Instrument_Serial,Reference_Counts,Signal_Counts,Corrected_Signal_raw_counts,Calculated_Beam_c_inverse_meters,Internal_thermistor_counts
2022-09-15T00:02:42,42.805,6.029,CST-1368DR,4585,5083,11801,01.120,551
2022-09-15T00:05:44,42.805,6.029,CST-1368DR,4585,5081,11797,01.122,551
2022-09-15T00:08:46,42.805,6.029,CST-1368DR,4585,5081,11797,01.122,551
2022-09-15T00:11:47,42.805,6.029,CST-1368DR,4585,5082,11798,01.121,551
2022-09-15T00:14:49,42.805,6.029,CST-1368DR,4585,5080,11794,01.123,551
2022-09-15T00:17:50,42.805,6.029,CST-1368DR,4585,5082,11799,01.121,551
2022-09-15T00:20:52,42.805,6.029,CST-1368DR,4585,5081,11798,01.121,551
2022-09-15T00:23:53,42.805,6.029,CST-1368DR,4585,5081,11796,01.122,551
2022-09-15T00:26:55,42.805,6.029,CST-1368DR,4585,5080,11796,01.122,551
2022-09-15T00:29:57,42.805,6.029,CST-1368DR,4585,5080,11794,01.123,551
2022-09-15T00:32:58,42.805,6.029,CST-1368DR,4585,5080,11794,01.123,551
2022-09-15T00:36:00,42.805,6.029,CST-1368DR,4585,5080,11796,01.122,551
2022-09-15T00:39:01,42.805,6.029,CST-1368DR,4585,5083,11802,01.120,551
2022-09-15T00:42:03,42.805,6.029,CST-1368DR,4585,5089,11816,01.115,551
2022-09-15T00:45:04,42.805,6.029,CST-1368DR,4584,5082,11803,01.120,551
2022-09-15T00:48:06,42.805,6.029,CST-1368DR,4584,5081,11799,01.121,551
2022-09-15T00:51:08,42.805,6.029,CST-1368DR,4584,5083,11803,01.120,551
2022-09-15T00:54:09,42.805,6.029,CST-1368DR,4584,5081,11800,01.121,551
2022-09-15T00:57:11,42.805,6.029,CST-1368DR,4584,5082,11802,01.120,551
2022-09-15T01:00:12,42.805,6.029,CST-1368DR,4584,5081,11799,01.121,551
2022-09-15T01:03:14,42.805,6.029,CST-1368DR,4584,5083,11804,01.119,551
2022-09-15T01:06:16,42.805,6.029,CST-1368DR,4584,5082,11802,01.120,551
2022-09-15T01:09:17,42.805,6.029,CST-1368DR,4584,5083,11804,01.119,551
2022-09-15T01:12:19,42.805,6.029,CST-1368DR,4584,5083,11805,01.119,551
2022-09-15T01:15:20,42.805,6.029,CST-1368DR,4584,5083,11804,01.119,551
2022-09-15T01:18:22,42.805,6.029,CST-1368DR,4584,5082,11803,01.120,551
2022-09-15T01:21:23,42.805,6.029,CST-1368DR,4584,5084,11806,01.119,551
2022-09-15T01:24:25,42.805,6.029,CST-1368DR,4584,5083,11804,01.119,551
2022-09-15T01:27:27,42.805,6.029,CST-1368DR,4584,5083,11805,01.119,551
2022-09-15T01:30:28,42.805,6.029,CST-1368DR,4585,5084,11803,01.120,551
2022-09-15T01:33:30,42.805,6.029,CST-1368DR,4585,5084,11803,01.120,551
2022-09-15T01:36:31,42.805,6.029,CST-1368DR,4585,5081,11796,01.122,551
2022-09-15T01:39:33,42.805,6.029,CST-1368DR,4585,5084,11803,01.120,551
2022-09-15T01:42:34,42.805,6.029,CST-1368DR,4585,5083,11802,01.120,551
2022-09-15T01:45:36,42.805,6.029,CST-1368DR,4585,5083,11801,01.120,551
2022-09-15T01:48:38,42.805,6.029,CST-1368DR,4585,5082,11799,01.121,551
2022-09-15T01:51:39,42.805,6.029,CST-1368DR,4585,5082,11800,01.121,551
2022-09-15T01:54:41,42.805,6.029,CST-1368DR,4585,5082,11800,01.121,551
2022-09-15T01:57:42,42.805,6.029,CST-1368DR,4585,5082,11799,01.121,551
2022-09-15T02:00:44,42.805,6.029,CST-1368DR,4585,5083,11801,01.120,551
2022-09-15T02:03:46,42.805,6.029,CST-1368DR,4585,5082,11798,01.121,551
2022-09-15T02:06:47,42.805,6.029,CST-1368DR,4585,5081,11797,01.122,551
2022-09-15T02:09:49,42.805,6.029,CST-1368DR,4585,5083,11803,01.120,551
2022-09-15T02:12:50,42.805,6.029,CST-1368DR,4585,5083,11801,01.120,551
2022-09-15T02:15:52,42.805,6.029,CST-1368DR,4585,5082,11799,01.121,551
2022-09-15T02:18:53,42.805,6.029,CST-1368DR,4585,5085,11805,01.119,551
2022-09-15T02:21:55,42.805,6.029,CST-1368DR,4585,5084,11805,01.119,551
2022-09-15T02:24:57,42.805,6.029,CST-1368DR,4585,5084,11804,01.119,551
2022-09-15T02:27:58,42.805,6.029,CST-1368DR,4585,5083,11801,01.120,551
2022-09-15T02:31:00,42.805,6.029,CST-1368DR,4585,5084,11803,01.120,551
2022-09-15T02:34:01,42.805,6.029,CST-1368DR,4585,5083,11803,01.120,551
2022-09-15T02:37:03,42.805,6.029,CST-1368DR,4585,5083,11803,01.120,551
2022-09-15T02:40:04,42.805,6.029,CST-1368DR,4585,5083,11802,01.120,551
2022-09-15T02:43:06,42.805,6.029,CST-1368DR,4585,5083,11801,01.120,551
2022-09-15T02:46:08,42.805,6.029,CST-1368DR,4585,5085,11806,01.119,551
2022-09-15T02:49:09,42.805,6.029,CST-1368DR,4585,5082,11800,01.121,551
2022-09-15T02:52:11,42.805,6.029,CST-1368DR,4585,5082,11800,01.121,551
2022-09-15T02:55:12,42.805,6.029,CST-1368DR,4585,5082,11799,01.121,551
2022-09-15T02:58:14,42.805,6.029,CST-1368DR,4585,5083,11802,01.120,551
2022-09-15T03:01:16,42.805,6.029,CST-1368DR,4585,5083,11801,01.120,551
2022-09-15T03:04:17,42.805,6.029,CST-1368DR,4585,5083,11801,01.120,551
2022-09-15T03:07:19,42.805,6.029,CST-1368DR,4585,5082,11799,01.121,551
2022-09-15T03:10:20,42.805,6.029,CST-1368DR,4585,5083,11801,01.120,551
2022-09-15T03:13:22,42.805,6.029,CST-1368DR,4585,5082,11799,01.121,551
2022-09-15T03:16:23,42.805,6.029,CST-1368DR,4585,5083,11801,01.120,551
2022-09-15T03:19:25,42.805,6.029,CST-1368DR,4585,5080,11794,01.123,551
2022-09-15T03:22:27,42.805,6.029,CST-1368DR,4585,5078,11791,01.124,551
2022-09-15T03:25:28,42.805,6.029,CST-1368DR,4585,5079,11793,01.123,551
2022-09-15T03:28:30,42.805,6.029,CST-1368DR,4585,5080,11795,01.122,551
2022-09-15T03:31:31,42.805,6.029,CST-1368DR,4585,5079,11793,01.123,551
2022-09-15T03:34:33,42.805,6.029,CST-1368DR,4585,5079,11793,01.123,551
2022-09-15T03:37:34,42.805,6.029,CST-1368DR,4585,5079,11792,01.123,551
2022-09-15T03:40:36,42.805,6.029,CST-1368DR,4585,5080,11795,01.122,551
2022-09-15T03:43:38,42.805,6.029,CST-1368DR,4585,5079,11793,01.123,551
2022-09-15T03:46:39,42.805,6.029,CST-1368DR,4585,5079,11793,01.123,551
2022-09-15T03:49:41,42.805,6.029,CST-1368DR,4585,5079,11792,01.123,551
2022-09-15T03:52:42,42.805,6.029,CST-1368DR,4585,5079,11792,01.123,551
2022-09-15T03:55:44,42.805,6.029,CST-1368DR,4585,5078,11791,01.124,551
2022-09-15T03:58:46,42.805,6.029,CST-1368DR,4585,5080,11794,01.123,551
2022-09-15T04:01:47,42.805,6.029,CST-1368DR,4585,5081,11796,01.122,551
2022-09-15T04:04:49,42.805,6.029,CST-1368DR,4585,5080,11795,01.122,551
2022-09-15T04:07:50,42.805,6.029,CST-1368DR,4585,5080,11794,01.123,551
2022-09-15T04:10:52,42.805,6.029,CST-1368DR,4585,5080,11794,01.123,551
2022-09-15T04:13:53,42.805,6.029,CST-1368DR,4585,5080,11794,01.123,551
2022-09-15T04:16:55,42.805,6.029,CST-1368DR,4585,5079,11793,01.123,551
2022-09-15T04:19:57,42.805,6.029,CST-1368DR,4585,5080,11795,01.122,551
2022-09-15T04:22:58,42.805,6.029,CST-1368DR,4585,5080,11795,01.122,551
2022-09-15T04:26:00,42.805,6.029,CST-1368DR,4585,5081,11796,01.122,551
2022-09-15T04:29:01,42.805,6.029,CST-1368DR,4585,5079,11793,01.123,551
2022-09-15T04:32:03,42.805,6.029,CST-1368DR,4585,5079,11793,01.123,551
2022-09-15T04:35:04,42.805,6.029,CST-1368DR,4585,5080,11794,01.123,551
2022-09-15T04:38:06,42.805,6.029,CST-1368DR,4585,5080,11794,01.123,551
2022-09-15T04:41:08,42.805,6.029,CST-1368DR,4585,5080,11794,01.123,551
2022-09-15T04:44:09,42.805,6.029,CST-1368DR,4585,5080,11794,01.123,551
2022-09-15T04:47:11,42.805,6.029,CST-1368DR,4585,5081,11796,01.122,551
2022-09-15T04:50:12,42.805,6.029,CST-1368DR,4585,5081,11796,01.122,551
2022-09-15T04:53:14,42.805,6.029,CST-1368DR,4585,5080,11796,01.122,551
2022-09-15T04:56:16,42.805,6.029,CST-1368DR,4585,5082,11798,01.121,551
2022-09-15T04:59:17,42.805,6.029,CST-1368DR,4585,5080,11796,01.122,551
2022-09-15T05:02:19,42.805,6.029,CST-1368DR,4585,5080,11794,01.123,551
2022-09-15T05:05:20,42.805,6.029,CST-1368DR,4585,5081,11796,01.122,551
2022-09-15T05:08:22,42.805,6.029,CST-1368DR,4585,5080,11796,01.122,551
2022-09-15T05:11:23,42.805,6.029,CST-1368DR,4585,5079,11793,01.123,551
2022-09-15T05:14:25,42.805,6.029,CST-1368DR,4585,5079,11793,01.123,551
2022-09-15T05:17:27,42.805,6.029,CST-1368DR,4585,5078,11790,01.124,551
2022-09-15T05:20:28,42.805,6.029,CST-1368DR,4585,5080,11794,01.123,551
2022-09-15T05:23:30,42.805,6.029,CST-1368DR,4585,5080,11794,01.123,551
2022-09-15T05:26:31,42.805,6.029,CST-1368DR,4585,5079,11792,01.123,551
2022-09-15T05:29:33,42.805,6.029,CST-1368DR,4585,5078,11789,01.125,551
2022-09-15T05:32:34,42.805,6.029,CST-1368DR,4585,5079,11793,01.123,551
2022-09-15T05:35:36,42.805,6.029,CST-1368DR,4585,5080,11794,01.123,551
2022-09-15T05:38:38,42.805,6.029,CST-1368DR,4585,5080,11794,01.123,551
2022-09-15T05:41:39,42.805,6.029,CST-1368DR,4585,5079,11792,01.123,551
2022-09-15T05:44:41,42.805,6.029,CST-1368DR,4585,5080,11794,01.123,551
2022-09-15T05:47:42,42.805,6.029,CST-1368DR,4585,5080,11795,01.122,551
2022-09-15T05:50:44,42.805,6.029,CST-1368DR,4585,5078,11791,01.124,551
2022-09-15T05:53:46,42.805,6.029,CST-1368DR,4585,5078,11790,01.124,551
2022-09-15T05:56:47,42.805,6.029,CST-1368DR,4585,5080,11794,01.123,551
2022-09-15T05:59:49,42.805,6.029,CST-1368DR,4585,5080,11795,01.122,551
2022-09-15T06:02:50,42.805,6.029,CST-1368DR,4585,5044,11710,01.151,551
2022-09-15T06:05:52,42.805,6.029,CST-1368DR,4585,5079,11792,01.123,551
2022-09-15T06:08:53,42.805,6.029,CST-1368DR,4585,5078,11790,01.124,551
2022-09-15T06:11:55,42.805,6.029,CST-1368DR,4585,5078,11790,01.124,551
2022-09-15T06:14:57,42.805,6.029,CST-1368DR,4585,5079,11792,01.123,551
2022-09-15T06:17:58,42.805,6.029,CST-1368DR,4585,5078,11790,01.124,551
2022-09-15T06:21:00,42.805,6.029,CST-1368DR,4585,5078,11790,01.124,551
2022-09-15T06:24:01,42.805,6.029,CST-1368DR,4585,5078,11791,01.124,551
2022-09-15T06:27:03,42.805,6.029,CST-1368DR,4585,5079,11792,01.123,551
2022-09-15T06:30:04,42.805,6.029,CST-1368DR,4585,5080,11794,01.123,551
2022-09-15T06:33:06,42.805,6.029,CST-1368DR,4585,5079,11793,01.123,551
2022-09-15T06:36:08,42.805,6.029,CST-1368DR,4585,5081,11796,01.122,551
2022-09-15T06:39:09,42.805,6.029,CST-1368DR,4585,5081,11798,01.121,551
2022-09-15T06:42:11,42.805,6.029,CST-1368DR,4585,5082,11799,01.121,551
2022-09-15T06:45:12,42.805,6.029,CST-1368DR,4585,5081,11797,01.122,551
2022-09-15T06:48:14,42.805,6.029,CST-1368DR,4585,5082,11798,01.121,551
2022-09-15T06:51:16,42.805,6.029,CST-1368DR,4585,5082,11800,01.121,551
2022-09-15T06:54:17,42.805,6.029,CST-1368DR,4585,5083,11801,01.120,551
2022-09-15T06:57:19,42.805,6.029,CST-1368DR,4585,5083,11803,01.120,551
2022-09-15T07:00:20,42.805,6.029,CST-1368DR,4585,5082,11798,01.121,551
2022-09-15T07:03:22,42.805,6.029,CST-1368DR,4585,5083,11801,01.120,551
2022-09-15T07:06:23,42.805,6.029,CST-1368DR,4585,5081,11798,01.121,551
2022-09-15T07:09:25,42.805,6.029,CST-1368DR,4585,5082,11800,01.121,551
2022-09-15T07:12:27,42.805,6.029,CST-1368DR,4585,5082,11800,01.121,551
2022-09-15T07:15:28,42.805,6.029,CST-1368DR,4585,5087,11811,01.117,551
2022-09-15T07:18:30,42.805,6.029,CST-1368DR,4585,5082,11800,01.121,551
2022-09-15T07:21:31,42.805,6.029,CST-1368DR,4585,5082,11800,01.121,551
2022-09-15T07:24:33,42.805,6.029,CST-1368DR,4585,5083,11803,01.120,551
2022-09-15T07:27:34,42.805,6.029,CST-1368DR,4585,5083,11802,01.120,551
2022-09-15T07:30:36,42.805,6.029,CST-1368DR,4585,5084,11805,01.119,551
2022-09-15T07:33:38,42.805,6.029,CST-1368DR,4585,5086,11809,01.118,551
2022-09-15T07:36:39,42.805,6.029,CST-1368DR,4585,5083,11801,01.120,551
2022-09-15T07:39:41,42.805,6.029,CST-1368DR,4585,5081,11797,01.122,551
2022-09-15T07:42:42,42.805,6.029,CST-1368DR,4585,5082,11800,01.121,551
2022-09-15T07:45:44,42.805,6.029,CST-1368DR,4585,5082,11798,01.121,551
2022-09-15T07:48:46,42.805,6.029,CST-1368DR,4585,5081,11796,01.122,551
2022-09-15T07:51:47,42.805,6.029,CST-1368DR,4585,5083,11801,01.120,551
2022-09-15T07:54:49,42.805,6.029,CST-1368DR,4585,5081,11797,01.122,551
2022-09-15T07:57:50,42.805,6.029,CST-1368DR,4585,5081,11796,01.122,551
2022-09-15T08:00:52,42.805,6.029,CST-1368DR,4585,5082,11800,01.121,551
2022-09-15T08:03:53,42.805,6.029,CST-1368DR,4585,5080,11794,01.123,551
2022-09-15T08:06:55,42.805,6.029,CST-1368DR,4585,5081,11797,01.122,551
2022-09-15T08:09:57,42.805,6.029,CST-1368DR,4585,5084,11804,01.119,551
2022-09-15T08:12:58,42.805,6.029,CST-1368DR,4585,5081,11797,01.122,551
2022-09-15T08:16:00,42.805,6.029,CST-1368DR,4585,5080,11794,01.123,551
2022-09-15T08:19:01,42.805,6.029,CST-1368DR,4585,5081,11797,01.122,551
2022-09-15T08:22:03,42.805,6.029,CST-1368DR,4585,5082,11799,01.121,551
2022-09-15T08:25:04,42.805,6.029,CST-1368DR,4585,5080,11796,01.122,551
2022-09-15T08:28:06,42.805,6.029,CST-1368DR,4585,5081,11796,01.122,551
2022-09-15T08:31:08,42.805,6.029,CST-1368DR,4585,5082,11798,01.121,551
2022-09-15T08:34:09,42.805,6.029,CST-1368DR,4585,5080,11796,01.122,551
2022-09-15T08:37:11,42.805,6.029,CST-1368DR,4585,5080,11796,01.122,551
2022-09-15T08:40:12,42.805,6.029,CST-1368DR,4585,5079,11792,01.123,551
2022-09-15T08:43:14,42.805,6.029,CST-1368DR,4585,5083,11801,01.120,551
2022-09-15T08:46:15,42.805,6.029,CST-1368DR,4585,5080,11794,01.123,551
2022-09-15T08:49:17,42.805,6.029,CST-1368DR,4585,5079,11793,01.123,551
2022-09-15T08:52:19,42.805,6.029,CST-1368DR,4585,5085,11805,01.119,551
2022-09-15T08:55:20,42.805,6.029,CST-1368DR,4585,5077,11789,01.125,551
2022-09-15T08:58:22,42.805,6.029,CST-1368DR,4585,5080,11794,01.123,551
2022-09-15T09:01:23,42.805,6.029,CST-1368DR,4585,5080,11794,01.123,551
2022-09-15T09:04:25,42.805,6.029,CST-1368DR,4585,5081,11796,01.122,551
2022-09-15T09:07:27,42.805,6.029,CST-1368DR,4585,5079,11793,01.123,551
2022-09-15T09:10:28,42.805,6.029,CST-1368DR,4585,5081,11796,01.122,551
2022-09-15T09:13:30,42.805,6.029,CST-1368DR,4585,5081,11797,01.122,551
2022-09-15T09:16:31,42.805,6.029,CST-1368DR,4585,5080,11794,01.123,551
2022-09-15T09:19:33,42.805,6.029,CST-1368DR,4585,5081,11797,01.122,551
2022-09-15T09:22:34,42.805,6.029,CST-1368DR,4585,5079,11792,01.123,551
2022-09-15T09:25:36,42.805,6.029,CST-1368DR,4585,5081,11797,01.122,551
2022-09-15T09:28:38,42.805,6.029,CST-1368DR,4585,5083,11801,01.120,551
2022-09-15T09:31:39,42.805,6.029,CST-1368DR,4585,5080,11795,01.122,551
2022-09-15T09:34:41,42.805,6.029,CST-1368DR,4585,5079,11793,01.123,551
2022-09-15T09:37:42,42.805,6.029,CST-1368DR,4585,5081,11796,01.122,551
2022-09-15T09:40:44,42.805,6.029,CST-1368DR,4585,5084,11803,01.120,551
2022-09-15T09:43:45,42.805,6.029,CST-1368DR,4585,5083,11802,01.120,551
2022-09-15T09:46:47,42.805,6.029,CST-1368DR,4585,5097,11834,01.109,551
2022-09-15T09:49:49,42.805,6.029,CST-1368DR,4585,5091,11820,01.114,551
2022-09-15T09:52:50,42.805,6.029,CST-1368DR,4585,5092,11823,01.113,551
2022-09-15T09:55:52,42.805,6.029,CST-1368DR,4585,5091,11820,01.114,551
2022-09-15T09:58:53,42.805,6.029,CST-1368DR,4585,5090,11818,01.115,551
2022-09-15T10:01:55,42.805,6.029,CST-1368DR,4585,5088,11812,01.117,551
2022-09-15T10:04:57,42.805,6.029,CST-1368DR,4585,5087,11812,01.117,551
2022-09-15T10:07:58,42.805,6.029,CST-1368DR,4585,5090,11818,01.115,551
2022-09-15T10:11:00,42.805,6.029,CST-1368DR,4585,5091,11819,01.114,551
2022-09-15T10:14:01,42.805,6.029,CST-1368DR,4584,5061,11754,01.136,551
2022-09-15T10:17:03,42.805,6.029,CST-1368DR,4585,5089,11816,01.115,551
2022-09-15T10:20:04,42.805,6.029,CST-1368DR,4585,5090,11819,01.114,551
2022-09-15T10:23:06,42.805,6.029,CST-1368DR,4585,5090,11819,01.114,551
2022-09-15T10:26:08,42.805,6.029,CST-1368DR,4585,5092,11822,01.113,551
2022-09-15T10:29:09,42.805,6.029,CST-1368DR,4585,5092,11823,01.113,551
2022-09-15T10:32:11,42.805,6.029,CST-1368DR,4585,5093,11825,01.112,551
2022-09-15T10:35:12,42.805,6.029,CST-1368DR,4585,5093,11824,01.113,551
2022-09-15T10:38:14,42.805,6.029,CST-1368DR,4585,5093,11826,01.112,551
2022-09-15T10:41:16,42.805,6.029,CST-1368DR,4585,5093,11826,01.112,551
2022-09-15T10:44:17,42.805,6.029,CST-1368DR,4585,5092,11822,01.113,551
2022-09-15T10:47:19,42.805,6.029,CST-1368DR,4585,5093,11824,01.113,551
2022-09-15T10:50:20,42.805,6.029,CST-1368DR,4585,5093,11825,01.112,551
2022-09-15T10:53:22,42.805,6.029,CST-1368DR,4585,5092,11823,01.113,551
2022-09-15T10:56:23,42.805,6.029,CST-1368DR,4585,5091,11821,01.114,551
2022-09-15T10:59:25,42.805,6.029,CST-1368DR,4585,5093,11825,01.112,551
2022-09-15T11:02:27,42.805,6.029,CST-1368DR,4585,5093,11824,01.113,551
2022-09-15T11:05:28,42.805,6.029,CST-1368DR,4585,5092,11823,01.113,551
2022-09-15T11:08:30,42.805,6.029,CST-1368DR,4585,5090,11818,01.115,551
2022-09-15T11:11:31,42.805,6.029,CST-1368DR,4585,5092,11822,01.113,551
2022-09-15T11:14:33,42.805,6.029,CST-1368DR,4585,5095,11830,01.111,551
2022-09-15T11:17:34,42.805,6.029,CST-1368DR,4585,5093,11825,01.112,551
2022-09-15T11:20:36,42.805,6.029,CST-1368DR,4585,5093,11826,01.112,551
2022-09-15T11:23:38,42.805,6.029,CST-1368DR,4585,5093,11825,01.112,551
2022-09-15T11:26:39,42.805,6.029,CST-1368DR,4585,5095,11829,01.111,551
2022-09-15T11:29:41,42.805,6.029,CST-1368DR,4585,5090,11818,01.115,551
2022-09-15T11:32:42,42.805,6.029,CST-1368DR,4585,5093,11824,01.113,551
2022-09-15T11:35:44,42.805,6.029,CST-1368DR,4585,5092,11823,01.113,551
2022-09-15T11:38:46,42.805,6.029,CST-1368DR,4585,5091,11821,01.114,551
2022-09-15T11:41:47,42.805,6.029,CST-1368DR,4585,5091,11820,01.114,551
2022-09-15T11:44:49,42.805,6.029,CST-1368DR,4585,5093,11825,01.112,551
2022-09-15T11:47:50,42.805,6.029,CST-1368DR,4585,5092,11823,01.113,551
2022-09-15T11:50:52,42.805,6.029,CST-1368DR,4585,5091,11821,01.114,551
2022-09-15T11:53:53,42.805,6.029,CST-1368DR,4585,5092,11822,01.113,551
2022-09-15T11:56:55,42.805,6.029,CST-1368DR,4585,5091,11820,01.114,551
2022-09-15T11:59:57,42.805,6.029,CST-1368DR,4585,5090,11818,01.115,551
2022-09-15T12:02:58,42.805,6.029,CST-1368DR,4585,5091,11821,01.114,551
2022-09-15T12:06:00,42.805,6.029,CST-1368DR,4585,5092,11822,01.113,551
2022-09-15T12:09:01,42.805,6.029,CST-1368DR,4585,5091,11820,01.114,551
2022-09-15T12:12:03,42.805,6.029,CST-1368DR,4585,5087,11811,01.117,551
2022-09-15T12:15:04,42.805,6.029,CST-1368DR,4585,5088,11813,01.116,551
2022-09-15T12:18:06,42.805,6.029,CST-1368DR,4585,5086,11810,01.117,551
2022-09-15T12:21:08,42.805,6.029,CST-1368DR,4585,5087,11811,01.117,551
2022-09-15T12:24:09,42.805,6.029,CST-1368DR,4585,5085,11807,01.118,551
2022-09-15T12:27:11,42.805,6.029,CST-1368DR,4585,5084,11804,01.119,551
2022-09-15T12:30:12,42.805,6.029,CST-1368DR,4585,5086,11809,01.118,551
2022-09-15T12:33:14,42.805,6.029,CST-1368DR,4585,5086,11808,01.118,551
2022-09-15T12:36:16,42.805,6.029,CST-1368DR,4585,5086,11810,01.117,551
2022-09-15T12:39:17,42.805,6.029,CST-1368DR,4585,5087,11810,01.117,551
2022-09-15T12:42:19,42.805,6.029,CST-1368DR,4585,5087,11812,01.117,551
2022-09-15T12:45:20,42.805,6.029,CST-1368DR,4585,5087,11810,01.117,551
2022-09-15T12:48:22,42.805,6.029,CST-1368DR,4585,5087,11811,01.117,551
2022-09-15T12:51:23,42.805,6.029,CST-1368DR,4585,5083,11802,01.120,551
2022-09-15T12:54:25,42.805,6.029,CST-1368DR,4585,5087,11810,01.117,551
2022-09-15T12:57:27,42.805,6.029,CST-1368DR,4585,5086,11808,01.118,551
2022-09-15T13:00:28,42.805,6.029,CST-1368DR,4585,5087,11811,01.117,551
2022-09-15T13:03:30,42.805,6.029,CST-1368DR,4585,5085,11807,01.118,551
2022-09-15T13:06:31,42.805,6.029,CST-1368DR,4585,5084,11804,01.119,551
2022-09-15T13:09:33,42.805,6.029,CST-1368DR,4585,5085,11807,01.118,551
2022-09-15T13:12:34,42.805,6.029,CST-1368DR,4585,5085,11807,01.118,551
2022-09-15T13:15:36,42.805,6.029,CST-1368DR,4585,5087,11810,01.117,551
2022-09-15T13:18:38,42.805,6.029,CST-1368DR,4585,5086,11809,01.118,551
2022-09-15T13:21:39,42.805,6.029,CST-1368DR,4585,5087,11811,01.117,551
2022-09-15T13:24:41,42.805,6.029,CST-1368DR,4585,5086,11809,01.118,551
2022-09-15T13:27:42,42.805,6.029,CST-1368DR,4585,5087,11811,01.117,551
2022-09-15T13:30:44,42.805,6.029,CST-1368DR,4585,5087,11810,01.117,551
2022-09-15T13:33:46,42.805,6.029,CST-1368DR,4585,5087,11810,01.117,551
2022-09-15T13:36:47,42.805,6.029,CST-1368DR,4585,5087,11811,01.117,551
2022-09-15T13:39:49,42.805,6.029,CST-1368DR,4585,5087,11811,01.117,551
2022-09-15T13:42:50,42.805,6.029,CST-1368DR,4585,5087,11811,01.117,551
2022-09-15T13:45:52,42.805,6.029,CST-1368DR,4585,5088,11812,01.117,551
2022-09-15T13:48:53,42.805,6.029,CST-1368DR,4584,5086,11811,01.117,551
2022-09-15T13:51:55,42.805,6.029,CST-1368DR,4585,5087,11811,01.117,551
2022-09-15T13:54:57,42.805,6.029,CST-1368DR,4585,5086,11810,01.117,551
2022-09-15T13:57:58,42.805,6.029,CST-1368DR,4585,5103,11847,01.105,551
2022-09-15T14:01:00,42.805,6.029,CST-1368DR,4584,5088,11815,01.116,551
2022-09-15T14:04:01,42.805,6.029,CST-1368DR,4584,5088,11815,01.116,551
2022-09-15T14:07:03,42.805,6.029,CST-1368DR,4584,5088,11815,01.116,551
2022-09-15T14:10:04,42.805,6.029,CST-1368DR,4585,5087,11812,01.117,551
2022-09-15T14:13:06,42.805,6.029,CST-1368DR,4585,5087,11811,01.117,551
2022-09-15T14:16:08,42.805,6.029,CST-1368DR,4584,5087,11814,01.116,551
2022-09-15T14:19:09,42.805,6.029,CST-1368DR,4584,5085,11808,01.118,551
2022-09-15T14:22:11,42.805,6.029,CST-1368DR,4584,5086,11811,01.117,551
2022-09-15T14:25:12,42.805,6.029,CST-1368DR,4584,5086,11811,01.117,551
2022-09-15T14:28:14,42.805,6.029,CST-1368DR,4584,5087,11813,01.116,551
2022-09-15T14:31:15,42.805,6.029,CST-1368DR,4584,5085,11809,01.118,551
2022-09-15T14:34:17,42.805,6.029,CST-1368DR,4584,5085,11810,01.117,551
2022-09-15T14:37:19,42.805,6.029,CST-1368DR,4584,5085,11808,01.118,551
2022-09-15T14:43:22,42.805,6.029,CST-1368DR,4584,5085,11810,01.117,551
2022-09-15T14:46:23,42.805,6.029,CST-1368DR,4584,5086,11811,01.117,551
2022-09-15T14:49:25,42.805,6.029,CST-1368DR,4584,5085,11810,01.117,551
2022-09-15T14:52:27,42.805,6.029,CST-1368DR,4584,5085,11810,01.117,551
2022-09-15T14:55:28,42.805,6.029,CST-1368DR,4584,5085,11810,01.117,551
2022-09-15T14:58:30,42.805,6.029,CST-1368DR,4584,5085,11810,01.117,551
2022-09-15T15:01:31,42.805,6.029,CST-1368DR,4584,5085,11809,01.118,551
2022-09-15T15:04:33,42.805,6.029,CST-1368DR,4584,5084,11807,01.118,551
2022-09-15T15:07:35,42.805,6.029,CST-1368DR,4584,5083,11805,01.119,551
2022-09-15T15:10:36,42.805,6.029,CST-1368DR,4584,5085,11808,01.118,551
2022-09-15T15:13:38,42.805,6.029,CST-1368DR,4584,5084,11807,01.118,551
2022-09-15T15:16:39,42.805,6.029,CST-1368DR,4584,5090,11820,01.114,551
2022-09-15T15:19:41,42.805,6.029,CST-1368DR,4584,5087,11813,01.116,551
2022-09-15T15:22:42,42.805,6.029,CST-1368DR,4584,5086,11811,01.117,551
2022-09-15T15:25:44,42.805,6.029,CST-1368DR,4584,5086,11812,01.117,551
2022-09-15T15:28:46,42.805,6.029,CST-1368DR,4584,5087,11813,01.116,551
2022-09-15T15:31:47,42.805,6.029,CST-1368DR,4584,5086,11811,01.117,551
2022-09-15T15:34:49,42.805,6.029,CST-1368DR,4584,5087,11813,01.116,551
2022-09-15T15:37:50,42.805,6.029,CST-1368DR,4584,5085,11808,01.118,551
2022-09-15T15:40:52,42.805,6.029,CST-1368DR,4584,5085,11810,01.117,551
2022-09-15T15:43:53,42.805,6.029,CST-1368DR,4584,5084,11807,01.118,551
2022-09-15T15:46:55,42.805,6.029,CST-1368DR,4584,5087,11813,01.116,551
2022-09-15T15:49:57,42.805,6.029,CST-1368DR,4584,5085,11808,01.118,551
2022-09-15T15:52:58,42.805,6.029,CST-1368DR,4584,5086,11812,01.117,551
2022-09-15T15:56:00,42.805,6.029,CST-1368DR,4584,5085,11809,01.118,551
2022-09-15T15:59:01,42.805,6.029,CST-1368DR,4584,5086,11811,01.117,551
2022-09-15T16:02:03,42.805,6.029,CST-1368DR,4584,5085,11808,01.118,551
2022-09-15T16:05:04,42.805,6.029,CST-1368DR,4584,5085,11810,01.117,551
2022-09-15T16:08:06,42.805,6.029,CST-1368DR,4584,5085,11808,01.118,551
2022-09-15T16:11:08,42.805,6.029,CST-1368DR,4584,5085,11810,01.117,551
2022-09-15T16:14:09,42.805,6.029,CST-1368DR,4584,5085,11809,01.118,551
2022-09-15T16:17:11,42.805,6.029,CST-1368DR,4584,5084,11807,01.118,551
2022-09-15T16:20:12,42.805,6.029,CST-1368DR,4584,5086,11811,01.117,551
2022-09-15T16:23:14,42.805,6.029,CST-1368DR,4584,5085,11809,01.118,551
2022-09-15T16:26:16,42.805,6.029,CST-1368DR,4584,5084,11807,01.118,551
2022-09-15T16:29:17,42.805,6.029,CST-1368DR,4584,5085,11808,01.118,551
2022-09-15T16:32:19,42.805,6.029,CST-1368DR,4584,5085,11810,01.117,551
2022-09-15T16:35:20,42.805,6.029,CST-1368DR,4584,5084,11806,01.119,551
2022-09-15T16:38:22,42.805,6.029,CST-1368DR,4584,5084,11806,01.119,551
2022-09-15T16:41:23,42.805,6.029,CST-1368DR,4584,5085,11810,01.117,551